Weather History for Hickory, NC

Change the Weather History Date:

Friday, April 18, 2014

  Actual Average Record
Temperature  
Mean Temperature 48 °F -  
Max Temperature 55 °F 71 °F 89 °F (2002)
Min Temperature 41 °F 47 °F 32 °F (1951)
Degree Days  
Heating Degree Days 17    
Moisture  
Dew Point 38 °F    
Average Humidity 69    
Maximum Humidity 93    
Minimum Humidity 53    
Precipitation  
Precipitation 0.13 in - - ()
Sea Level Pressure  
Sea Level Pressure 30.32 in    
Wind  
Wind Speed 2 mph (NNE)    
Max Wind Speed 7 mph    
Max Gust Speed -    
Visibility 10 miles    
Events Rain    
Averages and records for this station are not official NWS values.
T = Trace of Precipitation, MM = Missing Value Source: NWS Daily Summary

Daily Weather History Graph

Daily Weather History Graph

Search for Another Location

Airport:

Trip Planner

Search our weather history database for the weather conditions in past years. The results will help you decide how hot, cold, wet, or windy it might be!

Date:

Astronomy

Apr. 18, 2014 Rise Set
Actual Time 6:48 AM EDT 8:01 PM EDT
Civil Twilight 6:22 AM EDT 8:27 PM EDT
Nautical Twilight 5:50 AM EDT 8:59 PM EDT
Astronomical Twilight 5:18 AM EDT 9:32 PM EDT
Moon 11:40 PM EDT (4/18) 9:13 AM EDT (4/18)
Length of Visible Light 14h 05m
Length of Day
13h 12m
Waning Gibbous, 87% of the Moon is Illuminated
Apr 18
Waning Gibbous
Apr 22
Last Quarter
Apr 29
New
May 6
First Quarter
May 14
Full

Hourly Weather History & Observations

Time (EDT) Temp. Windchill Dew Point Humidity Pressure Visibility Wind Dir Wind Speed Gust Speed Precip Events Conditions
12:53 AM 44.1 °F - 30.9 °F 60% 30.39 in 10.0 mi Calm Calm - N/A   Clear
1:53 AM 43.0 °F 41.3 °F 30.0 °F 60% 30.38 in 10.0 mi North 3.5 mph - N/A   Clear
2:53 AM 41.0 °F - 32.0 °F 70% 30.36 in 10.0 mi Calm Calm - N/A   Clear
3:53 AM 41.0 °F - 35.1 °F 79% 30.36 in 10.0 mi Calm Calm - N/A   Clear
4:53 AM 41.0 °F - 35.1 °F 79% 30.35 in 10.0 mi Calm Calm - N/A   Clear
5:53 AM 42.1 °F - 34.0 °F 73% 30.36 in 10.0 mi Calm Calm - N/A   Clear
6:53 AM 42.1 °F - 36.0 °F 79% 30.38 in 10.0 mi Calm Calm - N/A   Clear
8:53 AM 44.1 °F 41.5 °F 37.0 °F 76% 30.39 in 10.0 mi NE 4.6 mph - N/A   Clear
9:53 AM 46.0 °F 44.8 °F 37.0 °F 71% 30.40 in 10.0 mi NNE 3.5 mph - N/A   Clear
10:53 AM 48.9 °F - 37.0 °F 64% 30.40 in 10.0 mi Variable 4.6 mph - N/A   Clear
11:53 AM 51.1 °F - 37.9 °F 61% 30.39 in 10.0 mi NNE 5.8 mph - N/A   Clear
12:53 PM 52.0 °F - 37.9 °F 59% 30.35 in 10.0 mi NNE 5.8 mph - N/A   Clear
1:53 PM 54.0 °F - 39.0 °F 57% 30.32 in 10.0 mi NNE 4.6 mph - N/A   Clear
2:53 PM 55.0 °F - 37.9 °F 53% 30.30 in 10.0 mi Calm Calm - N/A   Clear
3:53 PM 54.0 °F - 39.9 °F 59% 30.25 in 10.0 mi NE 3.5 mph - N/A   Partly Cloudy
4:53 PM 54.0 °F - 39.9 °F 59% 30.23 in 10.0 mi North 6.9 mph - N/A   Overcast
5:53 PM 54.0 °F - 39.9 °F 59% 30.25 in 10.0 mi Calm Calm - N/A   Overcast
6:53 PM 53.1 °F - 41.0 °F 64% 30.25 in 10.0 mi ENE 3.5 mph - N/A   Overcast
8:53 PM 48.9 °F - 45.0 °F 86% 30.23 in 7.0 mi North 5.8 mph - 0.07 in Rain Light Rain
9:53 PM 48.0 °F - 46.0 °F 93% 30.24 in 5.0 mi Calm Calm - 0.04 in Rain Light Rain
11:53 PM 46.9 °F - 43.0 °F 86% 30.17 in 10.0 mi North 4.6 mph - 0.02 in Rain Light Rain